Location: Gairloch Mountain Observatory
(46.1383°N, 60.9640°W)
Time: 12:08:55
(UTC-03:00)

CENTAUR R/B - Visible Passes

Search period start: 24 May 2015 00:00
Search period end: 03 June 2015 00:00
Orbit: 878 x 1311 km, 63.5° (Epoch: 21 May)

Date Brightness Start Highest point End Pass type
(mag) Time Alt. Az. Time Alt. Az. Time Alt. Az.
24 May 3.2 01:33:32 10° NW 01:41:08 73° NE 01:49:15 10° SE visible
24 May 3.7 03:24:49 10° NW 03:31:34 32° WSW 03:36:50 16° SSW visible
24 May 4.9 22:54:34 10° NNW 23:00:11 23° NNE 23:06:15 10° ENE visible
25 May 3.7 00:45:23 10° NW 00:52:42 52° NE 01:00:34 10° ESE visible
25 May 3.2 02:36:14 10° NW 02:43:36 50° WSW 02:48:33 23° S visible
25 May 5.0 22:06:01 10° NW 22:11:12 21° N 22:16:45 10° NE visible
25 May 4.1 23:57:15 10° NNW 00:04:07 39° NE 00:11:32 10° ESE visible
26 May 3.0 01:47:52 10° NW 01:55:31 74° SW 02:00:39 25° SSE visible
26 May 4.3 03:40:23 10° WNW 03:45:26 18° WSW 03:47:45 15° SW visible
26 May 5.1 21:17:12 10° NW 21:22:09 20° N 21:27:26 10° NE visible
26 May 4.5 23:09:03 10° NNW 23:15:22 30° NNE 23:22:13 10° E visible
27 May 3.1 00:59:39 10° NW 01:07:17 79° NE 01:13:01 22° SE visible
27 May 3.9 02:51:06 10° NW 02:57:38 29° WSW 03:00:08 24° SW visible
27 May 4.8 22:20:45 10° NNW 22:26:30 24° NNE 22:32:43 10° ENE visible
28 May 3.5 00:11:30 10° NW 00:18:54 56° NE 00:25:33 15° ESE visible
28 May 3.4 02:02:25 10° NW 02:09:42 45° WSW 02:12:41 32° SSW visible
28 May 4.9 21:32:15 10° NW 21:37:31 21° N 21:43:11 10° ENE visible
28 May 4.0 23:23:22 10° NNW 23:30:21 41° NE 23:37:54 10° ESE visible
29 May 3.0 01:14:02 10° NW 01:21:38 67° WSW 01:25:22 35° SSE visible
29 May 4.5 03:06:58 10° WNW 03:11:27 16° WSW 03:12:30 15° WSW visible
29 May 4.4 22:35:11 10° NNW 22:41:39 32° NNE 22:48:37 10° E visible
30 May 3.0 00:25:47 10° NW 00:33:27 85° NE 00:38:09 29° SE visible
30 May 4.0 02:17:25 10° WNW 02:23:40 26° WSW 02:25:18 24° SW visible
30 May 4.6 21:46:55 10° NNW 21:52:48 26° NNE 21:59:10 10° ENE visible
30 May 3.4 23:37:37 10° NW 23:45:05 61° NE 23:51:01 19° ESE visible
31 May 3.6 01:28:38 10° NW 01:35:46 41° WSW 01:38:10 33° SSW visible
31 May 3.8 22:49:28 10° NNW 22:56:35 44° NE 23:03:59 11° ESE visible
01 Jun 3.1 00:40:11 10° NW 00:47:44 61° WSW 00:51:07 36° S visible
01 Jun 4.7 02:33:42 10° WNW 02:37:28 14° WSW 02:38:17 13° WSW visible
01 Jun 4.2 22:01:19 10° NNW 22:07:54 34° NNE 22:15:02 10° E visible
01 Jun 3.0 23:51:54 10° NW 23:59:35 88° SW 00:04:08 30° SE visible
02 Jun 4.2 01:43:46 10° WNW 01:49:42 23° WSW 01:51:18 22° SW visible
02 Jun 3.3 23:03:44 10° NW 23:11:16 66° NE 23:17:13 20° SE visible
